ANA1264 ROAH-RJNS

Flight info

Callsign ANA1264
Flight time 1h 52m
Altitude 37000
Route AMAMI Y574 SHIBK Y57 MOSLO
Aircraft B738/M-SDE2E3FGHIRWXY/LB1

Departure

Time 2026-05-03 22:23
Airport Naha International Airport (ROAH)

Arrival

Time 2026-05-04 00:16
Airport Mount Fuji Shizuoka Airport (RJNS)
Time Latitude Longitude Altitude Speed Heading
2026-05-03 22:06 26.20442 127.64866 20 ft 0 kts 47°
2026-05-03 22:15 26.20431 127.64853 22 ft 3 kts 47°
2026-05-03 22:16 26.20417 127.64836 20 ft 3 kts 47°
2026-05-03 22:16 26.20403 127.64819 21 ft 3 kts 47°
2026-05-03 22:16 26.20389 127.64803 20 ft 1 kts 46°
2026-05-03 22:17 26.20391 127.64804 20 ft 3 kts 36°
2026-05-03 22:17 26.20401 127.64776 19 ft 7 kts 231°
2026-05-03 22:18 26.20324 127.64759 16 ft 18 kts 179°
2026-05-03 22:18 26.20175 127.64768 16 ft 22 kts 176°
2026-05-03 22:18 26.20022 127.64773 17 ft 22 kts 177°
2026-05-03 22:18 26.19875 127.64780 16 ft 21 kts 178°
2026-05-03 22:19 26.19729 127.64788 16 ft 20 kts 177°
2026-05-03 22:19 26.19587 127.64794 16 ft 21 kts 178°
2026-05-03 22:19 26.19438 127.64803 16 ft 21 kts 176°
2026-05-03 22:19 26.19293 127.64808 16 ft 21 kts 178°
2026-05-03 22:20 26.19147 127.64815 16 ft 22 kts 177°
2026-05-03 22:20 26.18987 127.64822 16 ft 23 kts 177°
2026-05-03 22:20 26.18829 127.64830 16 ft 22 kts 177°
2026-05-03 22:20 26.18676 127.64837 16 ft 22 kts 177°
2026-05-03 22:21 26.18521 127.64845 16 ft 22 kts 177°
2026-05-03 22:21 26.18367 127.64853 16 ft 22 kts 178°
2026-05-03 22:21 26.18243 127.64798 17 ft 21 kts 259°
2026-05-03 22:21 26.18241 127.64755 15 ft 0 kts 266°
2026-05-03 22:22 26.18242 127.64704 14 ft 13 kts 282°
2026-05-03 22:22 26.18326 127.64647 16 ft 15 kts 358°
2026-05-03 22:22 26.18598 127.64635 16 ft 79 kts 357°
2026-05-03 22:23 26.19420 127.64597 19 ft 155 kts 357°
2026-05-03 22:23 26.20627 127.64532 572 ft 186 kts 358°
2026-05-03 22:23 26.21968 127.64490 1490 ft 195 kts 359°
2026-05-03 22:23 26.23414 127.64447 2110 ft 219 kts 358°
2026-05-03 22:24 26.25007 127.64371 2477 ft 240 kts 353°
2026-05-03 22:24 26.26616 127.63773 2953 ft 255 kts 330°
2026-05-03 22:24 26.28184 127.62757 3715 ft 262 kts 326°
2026-05-03 22:24 26.29756 127.61738 4539 ft 269 kts 325°
2026-05-03 22:25 26.31411 127.60672 5389 ft 274 kts 326°
2026-05-03 22:25 26.33055 127.59613 6267 ft 277 kts 325°
2026-05-03 22:25 26.34733 127.58539 7109 ft 280 kts 325°
2026-05-03 22:25 26.36443 127.57451 7819 ft 286 kts 325°
2026-05-03 22:26 26.38168 127.56350 8722 ft 285 kts 324°
2026-05-03 22:26 26.39852 127.55161 9489 ft 287 kts 312°
2026-05-03 22:26 26.40950 127.53380 10299 ft 275 kts 286°
2026-05-03 22:26 26.41269 127.51264 10640 ft 287 kts 263°
2026-05-03 22:27 26.40697 127.49071 10817 ft 306 kts 241°
2026-05-03 22:27 26.39379 127.47110 10998 ft 326 kts 229°
2026-05-03 22:27 26.37819 127.45172 11126 ft 345 kts 229°
2026-05-03 22:27 26.36171 127.43175 11509 ft 354 kts 224°
2026-05-03 22:28 26.34079 127.41671 11999 ft 363 kts 205°
2026-05-03 22:28 26.31644 127.40900 12664 ft 369 kts 191°
2026-05-03 22:28 26.29064 127.40813 13345 ft 372 kts 183°
2026-05-03 22:28 26.26460 127.40877 13868 ft 376 kts 182°
2026-05-03 22:29 26.23832 127.40949 14293 ft 380 kts 183°
2026-05-03 22:29 26.21182 127.40999 14776 ft 382 kts 184°
2026-05-03 22:29 26.18514 127.41033 15296 ft 384 kts 184°
2026-05-03 22:29 26.15830 127.41163 15675 ft 393 kts 175°
2026-05-03 22:30 26.13204 127.42223 16034 ft 412 kts 154°
2026-05-03 22:30 26.10971 127.44278 16624 ft 425 kts 136°
2026-05-03 22:30 26.09382 127.47098 17017 ft 441 kts 115°
2026-05-03 22:30 26.08751 127.50432 17341 ft 454 kts 93°
2026-05-03 22:31 26.09133 127.53929 17813 ft 458 kts 79°
2026-05-03 22:31 26.09811 127.57403 18323 ft 461 kts 78°
2026-05-03 22:31 26.10513 127.60910 18648 ft 468 kts 78°
2026-05-03 22:31 26.11211 127.64454 19028 ft 470 kts 78°
2026-05-03 22:32 26.11893 127.68022 19401 ft 472 kts 79°
2026-05-03 22:32 26.12559 127.71602 19747 ft 474 kts 79°
2026-05-03 22:32 26.13216 127.75206 20091 ft 476 kts 79°
2026-05-03 22:32 26.13870 127.78825 20438 ft 478 kts 79°
2026-05-03 22:33 26.14529 127.82474 20779 ft 481 kts 79°
2026-05-03 22:33 26.15190 127.86130 21127 ft 483 kts 79°
2026-05-03 22:33 26.15849 127.89768 21475 ft 485 kts 79°
2026-05-03 22:33 26.16845 127.93360 21660 ft 491 kts 62°
2026-05-03 22:34 26.18769 127.96484 22002 ft 488 kts 46°
2026-05-03 22:34 26.21309 127.98940 22407 ft 482 kts 30°
2026-05-03 22:34 26.24155 128.00886 22766 ft 481 kts 27°
2026-05-03 22:34 26.27057 128.02780 22954 ft 485 kts 27°
2026-05-03 22:35 26.29986 128.04680 23154 ft 488 kts 27°
2026-05-03 22:35 26.32919 128.06604 23420 ft 490 kts 27°
2026-05-03 22:35 26.35851 128.08555 23719 ft 492 kts 28°
2026-05-03 22:35 26.38791 128.10534 23961 ft 493 kts 28°
2026-05-03 22:36 26.41722 128.12520 24202 ft 495 kts 28°
2026-05-03 22:36 26.44670 128.14523 24440 ft 496 kts 28°
2026-05-03 22:36 26.47626 128.16534 24690 ft 498 kts 28°
2026-05-03 22:36 26.50593 128.18551 24803 ft 502 kts 28°
2026-05-03 22:37 26.53544 128.20557 25001 ft 503 kts 28°
2026-05-03 22:37 26.56526 128.22585 25284 ft 502 kts 28°
2026-05-03 22:37 26.59512 128.24618 25486 ft 503 kts 28°
2026-05-03 22:37 26.62499 128.26651 25642 ft 505 kts 28°
2026-05-03 22:38 26.65511 128.28702 25793 ft 507 kts 28°
2026-05-03 22:38 26.68486 128.30848 25942 ft 512 kts 35°
2026-05-03 22:38 26.70999 128.33705 25994 ft 520 kts 51°
2026-05-03 22:38 26.73182 128.36914 26350 ft 517 kts 52°
2026-05-03 22:39 26.75348 128.40123 26509 ft 519 kts 51°
2026-05-03 22:39 26.77551 128.43339 26604 ft 522 kts 51°
2026-05-03 22:39 26.79796 128.46553 26741 ft 524 kts 50°
2026-05-03 22:39 26.82058 128.49751 26913 ft 524 kts 50°
2026-05-03 22:40 26.84330 128.52943 27119 ft 525 kts 50°
2026-05-03 22:40 26.86616 128.56157 27130 ft 531 kts 50°
2026-05-03 22:40 26.88925 128.59409 27181 ft 535 kts 50°
2026-05-03 22:40 26.91245 128.62686 27311 ft 536 kts 50°
2026-05-03 22:41 26.93754 128.65745 27428 ft 534 kts 36°
2026-05-03 22:41 26.96844 128.67922 28043 ft 517 kts 25°
2026-05-03 22:41 27.00023 128.69791 28452 ft 514 kts 24°
2026-05-03 22:41 27.03196 128.71644 28588 ft 517 kts 24°
2026-05-03 22:42 27.06401 128.73526 28612 ft 523 kts 24°
2026-05-03 22:42 27.12867 128.77388 28777 ft 529 kts 25°
2026-05-03 22:42 27.16105 128.79349 29011 ft 528 kts 25°
2026-05-03 22:43 27.19337 128.81317 29305 ft 527 kts 25°
2026-05-03 22:43 27.22552 128.83279 29625 ft 525 kts 24°
2026-05-03 22:43 27.25766 128.85241 29786 ft 527 kts 24°
2026-05-03 22:43 27.28958 128.87187 29947 ft 529 kts 24°
2026-05-03 22:44 27.32189 128.89158 30193 ft 528 kts 24°
2026-05-03 22:44 27.35408 128.91121 30447 ft 526 kts 25°
2026-05-03 22:44 27.38630 128.93088 30724 ft 525 kts 25°
2026-05-03 22:44 27.41832 128.95045 30983 ft 524 kts 24°
2026-05-03 22:45 27.45036 128.97004 31171 ft 524 kts 24°
2026-05-03 22:45 27.48238 128.98961 31367 ft 524 kts 24°
2026-05-03 22:45 27.51445 129.00924 31628 ft 523 kts 24°
2026-05-03 22:45 27.54635 129.02878 31918 ft 521 kts 24°
2026-05-03 22:46 27.57815 129.04827 32205 ft 520 kts 24°
2026-05-03 22:46 27.61001 129.06781 32427 ft 520 kts 24°
2026-05-03 22:46 27.64177 129.08729 32663 ft 520 kts 24°
2026-05-03 22:46 27.67347 129.10676 32931 ft 519 kts 24°
2026-05-03 22:47 27.70513 129.12621 33215 ft 517 kts 24°
2026-05-03 22:47 27.73664 129.14560 33602 ft 513 kts 24°
2026-05-03 22:47 27.75772 129.15858 33843 ft 511 kts 23°
2026-05-03 22:47 27.79904 129.18402 34191 ft 511 kts 23°
2026-05-03 22:48 27.82021 129.19704 34236 ft 514 kts 23°
2026-05-03 22:48 27.88303 129.23572 34435 ft 519 kts 23°
2026-05-03 22:48 27.91467 129.25527 34725 ft 516 kts 23°
2026-05-03 22:49 27.94605 129.27467 35048 ft 513 kts 23°
2026-05-03 22:49 27.97731 129.29401 35297 ft 512 kts 23°
2026-05-03 22:49 28.00862 129.31337 35439 ft 514 kts 23°
2026-05-03 22:50 28.07171 129.35239 35648 ft 517 kts 23°
2026-05-03 22:50 28.10317 129.37190 36019 ft 512 kts 23°
2026-05-03 22:50 28.13428 129.39123 36413 ft 507 kts 23°
2026-05-03 22:50 28.16510 129.41037 36677 ft 506 kts 23°
2026-05-03 22:51 28.19600 129.42961 36793 ft 508 kts 22°
2026-05-03 22:51 28.25829 129.46815 37018 ft 510 kts 22°
2026-05-03 22:52 28.32074 129.50708 37014 ft 513 kts 23°
2026-05-03 22:52 28.38307 129.54598 37029 ft 511 kts 23°
2026-05-03 22:52 28.41210 129.56897 36922 ft 524 kts 41°
2026-05-03 22:53 28.43469 129.60142 37034 ft 525 kts 58°
2026-05-03 22:53 28.45000 129.63906 36945 ft 527 kts 76°
2026-05-03 22:53 28.45654 129.67970 37084 ft 521 kts 85°
2026-05-03 22:53 28.46064 129.72053 36982 ft 523 kts 86°
2026-05-03 22:54 28.46431 129.76156 37029 ft 521 kts 86°
2026-05-03 22:54 28.47208 129.84352 37014 ft 522 kts 85°
2026-05-03 22:55 28.48074 129.92548 37043 ft 523 kts 85°
2026-05-03 22:55 28.48961 130.00773 37039 ft 524 kts 85°
2026-05-03 22:56 28.49863 130.08998 37033 ft 526 kts 81°
2026-05-03 22:56 28.52106 130.16912 37078 ft 527 kts 63°
2026-05-03 22:57 28.56008 130.23929 37187 ft 522 kts 52°
2026-05-03 22:57 28.58129 130.27303 37052 ft 526 kts 52°
2026-05-03 22:57 28.60225 130.30654 37070 ft 526 kts 53°
2026-05-03 22:58 28.64425 130.37511 37040 ft 528 kts 53°
2026-05-03 22:58 28.68594 130.44425 37030 ft 530 kts 53°
2026-05-03 22:59 28.72758 130.51338 37041 ft 530 kts 53°
2026-05-03 22:59 28.76937 130.58273 37043 ft 530 kts 53°
2026-05-03 23:00 28.81112 130.65221 37038 ft 531 kts 53°
2026-05-03 23:00 28.85278 130.72167 37062 ft 531 kts 54°
2026-05-03 23:01 28.89444 130.79124 37047 ft 531 kts 54°
2026-05-03 23:01 28.93607 130.86087 37041 ft 531 kts 54°
2026-05-03 23:02 28.97768 130.93059 37014 ft 530 kts 54°
2026-05-03 23:02 29.01908 131.00008 37015 ft 530 kts 53°
2026-05-03 23:03 29.06016 131.06914 37027 ft 528 kts 53°
2026-05-03 23:03 29.10137 131.13853 37012 ft 526 kts 54°
2026-05-03 23:04 29.14241 131.20775 37023 ft 525 kts 54°
2026-05-03 23:04 29.18330 131.27685 37025 ft 523 kts 54°
2026-05-03 23:05 29.22401 131.34575 37025 ft 522 kts 54°
2026-05-03 23:05 29.26469 131.41470 37038 ft 522 kts 54°
2026-05-03 23:06 29.30525 131.48358 37016 ft 522 kts 54°
2026-05-03 23:06 29.34583 131.55261 37026 ft 522 kts 54°
2026-05-03 23:07 29.38643 131.62177 37044 ft 523 kts 54°
2026-05-03 23:07 29.42707 131.69117 37005 ft 525 kts 54°
2026-05-03 23:08 29.46782 131.76089 37005 ft 527 kts 54°
2026-05-03 23:08 29.50860 131.83079 37010 ft 527 kts 55°
2026-05-03 23:09 29.54926 131.90058 37013 ft 529 kts 55°
2026-05-03 23:09 29.59016 131.97093 37014 ft 530 kts 55°
2026-05-03 23:10 29.63113 132.04151 36995 ft 530 kts 55°
2026-05-03 23:10 29.67339 132.11102 36978 ft 531 kts 50°
2026-05-03 23:11 29.72017 132.17646 37007 ft 529 kts 47°
2026-05-03 23:11 29.76772 132.24111 37028 ft 528 kts 48°
2026-05-03 23:12 29.81480 132.30628 36992 ft 530 kts 49°
2026-05-03 23:12 29.86153 132.37196 36987 ft 530 kts 49°
2026-05-03 23:13 29.90805 132.43767 37002 ft 529 kts 49°
2026-05-03 23:13 29.95459 132.50347 36990 ft 529 kts 49°
2026-05-03 23:14 30.00107 132.56922 36988 ft 529 kts 49°
2026-05-03 23:14 30.04719 132.63455 36990 ft 528 kts 49°
2026-05-03 23:15 30.09364 132.70045 36977 ft 530 kts 49°
2026-05-03 23:15 30.14011 132.76649 36992 ft 530 kts 49°
2026-05-03 23:16 30.18661 132.83269 36985 ft 530 kts 49°
2026-05-03 23:16 30.23312 132.89901 36977 ft 532 kts 49°
2026-05-03 23:17 30.27972 132.96558 36994 ft 532 kts 49°
2026-05-03 23:17 30.32629 133.03221 36982 ft 533 kts 50°
2026-05-03 23:18 30.37296 133.09910 36984 ft 534 kts 50°
2026-05-03 23:18 30.41972 133.16622 36977 ft 535 kts 50°
2026-05-03 23:19 30.46644 133.23341 36954 ft 536 kts 50°
2026-05-03 23:19 30.51327 133.30087 36967 ft 536 kts 50°
2026-05-03 23:20 30.55991 133.36817 36966 ft 535 kts 50°
2026-05-03 23:20 30.60656 133.43561 36948 ft 536 kts 50°
2026-05-03 23:21 30.65286 133.50265 36957 ft 535 kts 50°
2026-05-03 23:21 30.69933 133.57005 36956 ft 534 kts 50°
2026-05-03 23:22 30.76889 133.67117 36949 ft 533 kts 50°
2026-05-03 23:22 30.81517 133.73858 36939 ft 533 kts 50°
2026-05-03 23:23 30.86138 133.80598 36959 ft 533 kts 50°
2026-05-03 23:23 30.90768 133.87363 36954 ft 533 kts 50°
2026-05-03 23:24 30.95386 133.94124 36931 ft 533 kts 50°
2026-05-03 23:24 30.99997 134.00885 36937 ft 534 kts 50°
2026-05-03 23:25 31.04626 134.07687 36938 ft 534 kts 50°
2026-05-03 23:25 31.09246 134.14486 36946 ft 535 kts 51°
2026-05-03 23:26 31.13835 134.21252 36933 ft 536 kts 51°
2026-05-03 23:26 31.18459 134.28080 36920 ft 536 kts 51°
2026-05-03 23:27 31.23079 134.34916 36937 ft 537 kts 51°
2026-05-03 23:27 31.27711 134.41781 36933 ft 537 kts 51°
2026-05-03 23:28 31.32340 134.48655 36915 ft 537 kts 51°
2026-05-03 23:28 31.36964 134.55533 36916 ft 538 kts 51°
2026-05-03 23:29 31.41589 134.62423 36896 ft 538 kts 51°
2026-05-03 23:29 31.46205 134.69314 36927 ft 538 kts 51°
2026-05-03 23:30 31.50816 134.76209 36914 ft 538 kts 51°
2026-05-03 23:30 31.55420 134.83107 36898 ft 538 kts 51°
2026-05-03 23:31 31.60028 134.90023 36907 ft 538 kts 51°
2026-05-03 23:31 31.64638 134.96954 36895 ft 539 kts 51°
2026-05-03 23:32 31.69218 135.03853 36881 ft 538 kts 51°
2026-05-03 23:32 31.73929 135.10701 36877 ft 538 kts 47°
2026-05-03 23:33 31.78940 135.17217 36882 ft 537 kts 46°
2026-05-03 23:33 31.84001 135.23677 36892 ft 537 kts 46°
2026-05-03 23:34 31.88178 135.29082 36892 ft 537 kts 46°
2026-05-03 23:34 31.93182 135.35627 36867 ft 537 kts 46°
2026-05-03 23:35 31.98160 135.42170 36886 ft 537 kts 47°
2026-05-03 23:35 32.03138 135.48718 36856 ft 537 kts 47°
2026-05-03 23:36 32.08117 135.55274 36880 ft 536 kts 47°
2026-05-03 23:36 32.13094 135.61837 36866 ft 537 kts 47°
2026-05-03 23:37 32.18037 135.68368 36874 ft 536 kts 47°
2026-05-03 23:37 32.23008 135.74947 36868 ft 537 kts 47°
2026-05-03 23:38 32.27978 135.81537 36861 ft 537 kts 47°
2026-05-03 23:38 32.32949 135.88142 36845 ft 537 kts 47°
2026-05-03 23:39 32.37918 135.94756 36855 ft 538 kts 47°
2026-05-03 23:39 32.42859 136.01390 36835 ft 539 kts 50°
2026-05-03 23:40 32.47096 136.08693 36928 ft 537 kts 58°
2026-05-03 23:40 32.51049 136.16244 36840 ft 539 kts 58°
2026-05-03 23:41 32.55031 136.23792 36824 ft 540 kts 58°
2026-05-03 23:41 32.59068 136.31314 36836 ft 540 kts 58°
2026-05-03 23:42 32.63122 136.38829 36823 ft 540 kts 58°
2026-05-03 23:42 32.67166 136.46343 36820 ft 540 kts 58°
2026-05-03 23:43 32.71200 136.53863 36826 ft 540 kts 58°
2026-05-03 23:43 32.75230 136.61398 36827 ft 540 kts 58°
2026-05-03 23:44 32.79255 136.68938 36812 ft 540 kts 58°
2026-05-03 23:44 32.83271 136.76476 36815 ft 539 kts 58°
2026-05-03 23:45 32.87256 136.83968 36813 ft 539 kts 58°
2026-05-03 23:45 32.91282 136.91555 36802 ft 539 kts 58°
2026-05-03 23:46 32.95254 136.99056 36800 ft 538 kts 58°
2026-05-03 23:46 32.99242 137.06602 36824 ft 538 kts 58°
2026-05-03 23:47 33.03234 137.14171 36800 ft 539 kts 58°
2026-05-03 23:47 33.07213 137.21731 36805 ft 539 kts 58°
2026-05-03 23:48 33.11200 137.29321 36789 ft 540 kts 58°
2026-05-03 23:48 33.15183 137.36922 36797 ft 540 kts 58°
2026-05-03 23:49 33.19162 137.44528 36792 ft 541 kts 58°
2026-05-03 23:49 33.23139 137.52172 36792 ft 541 kts 58°
2026-05-03 23:50 33.27107 137.59825 36797 ft 542 kts 58°
2026-05-03 23:50 33.31072 137.67485 36789 ft 542 kts 58°
2026-05-03 23:51 33.35042 137.75167 36779 ft 543 kts 59°
2026-05-03 23:51 33.39005 137.82853 36775 ft 542 kts 59°
2026-05-03 23:52 33.42944 137.90508 36249 ft 549 kts 59°
2026-05-03 23:52 33.44959 137.94414 35554 ft 550 kts 58°
2026-05-03 23:52 33.46963 137.98267 35129 ft 544 kts 58°
2026-05-03 23:53 33.49008 138.02197 34204 ft 552 kts 58°
2026-05-03 23:53 33.51254 138.05815 33651 ft 547 kts 43°
2026-05-03 23:53 33.54232 138.08603 32845 ft 538 kts 24°
2026-05-03 23:53 33.57555 138.10500 32315 ft 523 kts 12°
2026-05-03 23:54 33.61078 138.11437 31436 ft 510 kts 356°
2026-05-03 23:54 33.64569 138.11834 30803 ft 507 kts 356°
2026-05-03 23:54 33.68120 138.12255 30037 ft 512 kts 357°
2026-05-03 23:54 33.71668 138.12708 29010 ft 517 kts 357°
2026-05-03 23:55 33.75239 138.13191 28296 ft 515 kts 358°
2026-05-03 23:55 33.78813 138.13691 27280 ft 519 kts 358°
2026-05-03 23:55 33.82412 138.14201 26428 ft 519 kts 358°
2026-05-03 23:55 33.86012 138.14712 25441 ft 523 kts 358°
2026-05-03 23:56 33.89639 138.15225 24487 ft 527 kts 359°
2026-05-03 23:56 33.93208 138.15734 23813 ft 522 kts 359°
2026-05-03 23:56 33.96864 138.16254 22971 ft 521 kts 359°
2026-05-03 23:56 34.00449 138.16763 22153 ft 517 kts 359°
2026-05-03 23:57 34.03962 138.17259 21303 ft 515 kts 359°
2026-05-03 23:57 34.07546 138.17767 20688 ft 506 kts 358°
2026-05-03 23:57 34.10998 138.18253 19841 ft 506 kts 358°
2026-05-03 23:57 34.14458 138.18745 19333 ft 494 kts 358°
2026-05-03 23:58 34.17890 138.19292 18328 ft 504 kts
2026-05-03 23:58 34.21171 138.20780 17750 ft 503 kts 25°
2026-05-03 23:58 34.23933 138.23360 16753 ft 503 kts 44°
2026-05-03 23:58 34.26051 138.26640 16060 ft 490 kts 59°
2026-05-03 23:59 34.27396 138.30369 15355 ft 477 kts 76°
2026-05-03 23:59 34.28314 138.34160 14659 ft 468 kts 77°
2026-05-03 23:59 34.29188 138.37925 14020 ft 459 kts 77°
2026-05-03 23:59 34.30053 138.41638 13300 ft 462 kts 77°
2026-05-04 00:00 34.30947 138.45422 12549 ft 473 kts 77°
2026-05-04 00:00 34.31868 138.49236 11690 ft 468 kts 76°
2026-05-04 00:00 34.32779 138.52950 11096 ft 453 kts 76°
2026-05-04 00:00 34.33655 138.56505 10945 ft 428 kts 76°
2026-05-04 00:01 34.34481 138.59872 10740 ft 410 kts 76°
2026-05-04 00:01 34.35266 138.63088 10574 ft 395 kts 77°
2026-05-04 00:01 34.36059 138.66235 10403 ft 390 kts 71°
2026-05-04 00:01 34.37436 138.69046 10201 ft 386 kts 44°
2026-05-04 00:02 34.39462 138.71000 10104 ft 362 kts 22°
2026-05-04 00:02 34.41719 138.72109 9885 ft 339 kts
2026-05-04 00:02 34.43974 138.72580 9757 ft 322 kts 357°
2026-05-04 00:02 34.46161 138.72938 9460 ft 313 kts 356°
2026-05-04 00:03 34.48302 138.73277 9213 ft 307 kts 356°
2026-05-04 00:03 34.50390 138.73623 8936 ft 300 kts 356°
2026-05-04 00:03 34.52435 138.73976 8678 ft 293 kts 356°
2026-05-04 00:03 34.54440 138.74329 8467 ft 290 kts 356°
2026-05-04 00:04 34.56436 138.74678 8214 ft 291 kts 357°
2026-05-04 00:04 34.58443 138.74786 7911 ft 283 kts 335°
2026-05-04 00:04 34.60128 138.73864 7759 ft 257 kts 309°
2026-05-04 00:04 34.61335 138.72354 7435 ft 241 kts 292°
2026-05-04 00:05 34.62057 138.70625 7212 ft 222 kts 283°
2026-05-04 00:05 34.62651 138.68926 6928 ft 215 kts 282°
2026-05-04 00:05 34.63218 138.67277 6711 ft 210 kts 282°
2026-05-04 00:05 34.63776 138.65643 6473 ft 206 kts 283°
2026-05-04 00:06 34.64314 138.64083 6274 ft 196 kts 283°
2026-05-04 00:06 34.64826 138.62596 6048 ft 190 kts 282°
2026-05-04 00:06 34.65325 138.61147 5811 ft 184 kts 282°
2026-05-04 00:06 34.65813 138.59728 5555 ft 179 kts 282°
2026-05-04 00:07 34.66287 138.58352 5382 ft 174 kts 282°
2026-05-04 00:07 34.66750 138.57002 5198 ft 174 kts 282°
2026-05-04 00:07 34.67214 138.55652 5051 ft 171 kts 282°
2026-05-04 00:07 34.67669 138.54331 4979 ft 171 kts 282°
2026-05-04 00:08 34.68131 138.52983 4896 ft 175 kts 283°
2026-05-04 00:08 34.68604 138.51607 4818 ft 178 kts 283°
2026-05-04 00:08 34.69082 138.50221 4738 ft 177 kts 283°
2026-05-04 00:08 34.69557 138.48843 4660 ft 177 kts 283°
2026-05-04 00:09 34.70032 138.47468 4575 ft 176 kts 283°
2026-05-04 00:09 34.70514 138.46069 4448 ft 186 kts 283°
2026-05-04 00:09 34.71000 138.44575 4204 ft 195 kts 287°
2026-05-04 00:09 34.71540 138.43081 3928 ft 186 kts 281°
2026-05-04 00:10 34.71971 138.41660 3701 ft 172 kts 285°
2026-05-04 00:10 34.72410 138.40390 3527 ft 153 kts 285°
2026-05-04 00:10 34.72796 138.39216 3356 ft 149 kts 288°
2026-05-04 00:10 34.73218 138.38096 3209 ft 142 kts 288°
2026-05-04 00:11 34.73602 138.37018 3023 ft 135 kts 287°
2026-05-04 00:11 34.73954 138.35984 2863 ft 134 kts 287°
2026-05-04 00:11 34.74305 138.34933 2735 ft 133 kts 287°
2026-05-04 00:11 34.74647 138.33898 2695 ft 132 kts 287°
2026-05-04 00:12 34.74992 138.32856 2553 ft 135 kts 287°
2026-05-04 00:12 34.75337 138.31811 2408 ft 132 kts 287°
2026-05-04 00:12 34.75682 138.30768 2249 ft 132 kts 288°
2026-05-04 00:12 34.76026 138.29726 2066 ft 132 kts 288°
2026-05-04 00:13 34.76367 138.28699 1896 ft 124 kts 288°
2026-05-04 00:13 34.76669 138.27787 1749 ft 112 kts 288°
2026-05-04 00:13 34.76954 138.26925 1594 ft 107 kts 288°
2026-05-04 00:13 34.77232 138.26081 1447 ft 108 kts 288°
2026-05-04 00:14 34.77514 138.25231 1300 ft 109 kts 287°
2026-05-04 00:14 34.77804 138.24356 1169 ft 115 kts 287°
2026-05-04 00:14 34.78113 138.23420 999 ft 125 kts 287°
2026-05-04 00:14 34.78443 138.22426 824 ft 127 kts 288°
2026-05-04 00:15 34.78780 138.21425 647 ft 129 kts 285°
2026-05-04 00:15 34.79117 138.20417 505 ft 124 kts 284°
2026-05-04 00:15 34.79425 138.19497 447 ft 110 kts 284°
2026-05-04 00:15 34.79656 138.18766 441 ft 57 kts 292°
2026-05-04 00:16 34.79776 138.18417 439 ft 43 kts 293°
2026-05-04 00:16 34.79831 138.18205 449 ft 19 kts 254°
2026-05-04 00:16 34.79743 138.18135 451 ft 10 kts 204°
2026-05-04 00:16 34.79698 138.18071 450 ft 10 kts 212°
2026-05-04 00:17 34.79633 138.18044 452 ft 10 kts 201°
2026-05-04 00:17 34.79593 138.18025 452 ft 1 kts 201°
2026-05-04 00:17 34.79592 138.18025 452 ft 0 kts 201°